Location: Gloden
(48.4833°N, 15.3167°E)
Time: 05:52:47
(UTC+00:00)

Meteor 1-11 Rocket - Pass Details

Date: 15 December 2019
Orbit: 831 x 916 km, 81.2° (Epoch: 22 January)

Event Time Altitude Azimuth Distance (km) Brightness Sun altitude
Rises 05:03:06 0° 194° (SSW) 3,459 6.9 -15.7°
Reaches altitude 10° 05:05:30 10° 195° (SSW) 2,537 6.2 -15.3°
Maximum altitude 05:11:18 79° 282° (WNW) 920 3.7 -14.4°
Drops below altitude 10° 05:17:16 10° 10° (N) 2,604 6.1 -13.5°
Sets 05:19:46 0° 12° (NNE) 3,557 6.9 -13.1°
